Weather past 2 weeks in Jamestown, Saint Helena

Now
59 °F

Cool.


Feels Like: 57 °F
Forecast: 66 / 69 °F
Wind: 10 mph from Southeast

Location: Saint Helena Island

Current Time: Aug 22, 2014 at 8:31:38 AM

Latest Report: Aug 22, 2014 at 8:00 AM


Visibility: N/A

Pressure: 30.16 "Hg

Humidity: 91%

Dew point: 56 °F

Location of JamestownLocation

Historic Weather in Jamestown — Graph

°F

Jamestown temperature yesterday

Maximum temperature yesterday: 66 °F (at 1:00 PM)
Minimum temperature yesterday: 55 °F (at 7:00 AM)
Average temperature yesterday: 60 °F

Past Weeks' High & Low Weather Summary

 TemperatureHumidityPressure
High66 °F (Aug 21, 1:00 PM)100% (Aug 8, 4:00 AM)30.22 "Hg (Aug 8, 4:00 AM)
Low53 °F (Aug 9, 1:00 AM)66% (Aug 11, 1:00 PM)30.03 "Hg (Aug 17, 4:00 PM)
Average59 °F86%30.14 "Hg
* Reported Aug 7 5:00 AM — Aug 22 5:00 AM, Jamestown, Weather by CustomWeather, © 2014

Note: Actual official high and low records may vary slightly from our data, if they occured in-between our weather recording intervals... More about our weather records

Advertising

Jamestown weather history for previous 24 hours

 ConditionsComfort  
Time TempWeatherWind HumidityBarometerVisibility
5:00 AM
Aug 22
57 °FCool.7 mph93%30.11 "HgN/A
4:00 AM57 °FCool.6 mph93%30.12 "HgN/A
3:00 AM58 °FCool.7 mph92%30.12 "HgN/A
2:00 AM58 °FCool.7 mph90%30.13 "HgN/A
1:00 AM58 °FCool.7 mph92%30.15 "HgN/A
12:00 AM58 °FCool.8 mph92%30.16 "HgN/A
11:00 PM
Aug 21
59 °FCool.8 mph91%30.17 "HgN/A
10:00 PM58 °FCool.6 mph93%30.16 "HgN/A
9:00 PM58 °FCool.3 mph93%30.16 "HgN/A
8:00 PM58 °FCool.3 mph92%30.14 "HgN/A
7:00 PM60 °FCool.6 mph89%30.12 "HgN/A
6:00 PM60 °FCool.6 mph86%30.11 "HgN/A
5:00 PM62 °FCool.6 mph84%30.09 "HgN/A
4:00 PM63 °FMild.8 mph81%30.09 "HgN/A
3:00 PM63 °FPartly sunny.8 mph75%30.09 "Hg40 mi
2:00 PM65 °FPartly sunny.9 mph68%30.11 "Hg40 mi
1:00 PM66 °FPartly sunny.10 mph68%30.12 "Hg37 mi
12:00 PM65 °FPartly sunny.9 mph73%30.16 "Hg40 mi
11:00 AM64 °FPartly sunny.7 mph72%30.18 "Hg31 mi
10:00 AM62 °FOvercast.7 mph80%30.19 "Hg31 mi
9:00 AM60 °FOvercast.8 mph86%30.19 "Hg28 mi
8:00 AM59 °FCool.5 mph92%N/AN/A
Weather by CustomWeather, © 2014

See weather overviewHow to use our weather pages